Louisville International Airport

Airport
ICAO code: 
KSDF
IATA Code: 
SDF
Summary
ICAO Region: 
NAM
Territory: 
Location: 
Louisville, Kentucky,
Serving: 
Louisville
Elevation: 
501 ft
Coordinates: 
Aerial View: 
38° 10' 27.248" N, 85° 44' 5.918" W
Airport LOS: 
Parallel Runway Operation
Airport WX: 
Cumulonimbus
Metar
Observation
KSDF 192256Z 32009KT 10SM -RA FEW027 BKN035 OVC070 06/04 A3003 RMK AO2 SLP172 P0008 T00610044
Station
Louisville, Standiford Field
Date/Time
2022-01-19 22:56:00
Wind direction
320°
Wind speed
09 kts
Lowest cloud amount
few clouds
Temperature
6.1°C
Dew point
4.4°C
Humidity
88%
Weather condition
light rain

Description

Louisville International Airport is a public and military use airport centrally located in the city of Louisville in Jefferson County, Kentucky. Its IATA airport code, SDF, is based on the airport's former name, Standiford Field.

Climatology

Humid “subtropical” climate (Köppen climate classification Cfa) - characterized by hot, humid summers and cool winters. Significant amounts of precipitation occur in all seasons in most areas. Winter rainfall (and sometimes snowfall) is associated with large storms that the westerlies steer from west to east. Most summer rainfall occurs during thunderstorms.

Runways

Designator Length Width Surface Rops
11/29 2210 46 CON Yes/Yes
17L/35R 2615 46 CON Yes/Yes
17R/35L 3307 46 CON Yes/Yes
Airport map: 
Aerial View: 

SKYbrary Partners:

Safety knowledge contributed by: